Whiteman AFB, MO

1:50 AM CDT on April 25, 2017 (GMT -0500)
Whiteman Air Force Base

Weather History for KSZL - September, 2011

Change the Weather History Date:

Saturday, September 17, 2011

  Actual Average Record
Temperature  
Mean Temperature 57 °F -  
Max Temperature 63 °F 77 °F 89 °F (2015)
Min Temperature 52 °F 56 °F 50 °F (1996)
Degree Days  
Heating Degree Days 8    
Growing Degree Days 7 (Base 50)    
Moisture  
Dew Point 56 °F    
Average Humidity 97    
Maximum Humidity 100    
Minimum Humidity 86    
Precipitation  
Precipitation 0.08 in - - ()
Sea Level Pressure  
Sea Level Pressure 30.12 in    
Wind  
Wind Speed 8 mph (SE)    
Max Wind Speed 13 mph    
Max Gust Speed -    
Visibility 9 miles    
Events Rain    
Averages and records for this station are not official NWS values.
T = Trace of Precipitation, MM = Missing Value Source: NWS Daily Summary

Daily Weather History Graph

Daily Weather History Graph

Search for Another Location

Airport or City:

Trip Planner

Search our weather history database for the weather conditions in past years. The results will help you decide how hot, cold, wet, or windy it might be!

Date:

Astronomy

Sep. 17, 2011 Rise Set
Actual Time 6:57 AM CDT 7:19 PM CDT
Civil Twilight 6:30 AM CDT 7:46 PM CDT
Nautical Twilight 5:59 AM CDT 8:17 PM CDT
Astronomical Twilight 5:27 AM CDT 8:49 PM CDT
Moon 9:54 PM CDT (9/17) 11:56 AM CDT (9/17)
Length of Visible Light 13h 15m
Length of Day
12h 22m
Waning Gibbous, 76% of the Moon is Illuminated
Sep 17
Waning Gibbous
Sep 20
Last Quarter
Sep 27
New
Oct 3
First Quarter
Oct 11
Full

Hourly Weather History & Observations

Time (CDT) Temp. Dew Point Humidity Pressure Visibility Wind Dir Wind Speed Gust Speed Precip Events Conditions
12:55 AM 54.5 °F 51.4 °F 89% 30.17 in 10.0 mi East 8.1 mph - N/A   Overcast
1:28 AM 53.6 °F 50.0 °F 88% 30.17 in 10.0 mi SE 5.8 mph - N/A   Light Drizzle
1:40 AM 53.6 °F 50.0 °F 88% 30.17 in 10.0 mi ESE 6.9 mph - N/A   Overcast
1:55 AM 54.1 °F 50.2 °F 86% 30.17 in 10.0 mi ESE 5.8 mph - 0.00 in   Overcast
2:16 AM 53.6 °F 50.0 °F 88% 30.16 in 10.0 mi East 8.1 mph - N/A   Overcast
5:55 AM 52.7 °F 52.5 °F 99% 30.15 in 10.0 mi East 6.9 mph - 0.01 in   Overcast
5:58 AM 53.6 °F 51.8 °F 94% 30.15 in 9.0 mi ESE 6.9 mph - N/A   Light Drizzle
6:06 AM 53.6 °F 51.8 °F 94% 30.15 in 5.0 mi ESE 5.8 mph - N/A   Light Drizzle
7:28 AM 53.6 °F 53.6 °F 100% 30.25 in 5.0 mi ESE 4.6 mph - N/A   Overcast
7:55 AM 53.6 °F 53.6 °F 100% 30.23 in 3.0 mi ESE 8.1 mph - N/A Rain Light Rain
8:40 AM 53.6 °F 53.6 °F 100% 30.15 in 5.0 mi East 9.2 mph - N/A   Overcast
8:55 AM 53.2 °F 53.2 °F 100% 30.22 in - East 10.4 mph - 0.03 in   Overcast
9:55 AM 54.0 °F 54.0 °F 100% 30.15 in 10.0 mi SE 9.2 mph - N/A   Overcast
10:55 AM 55.8 °F 55.6 °F 99% 30.23 in 10.0 mi SSE 8.1 mph - N/A   Overcast
11:15 AM 55.4 °F 55.4 °F 100% 30.16 in 7.0 mi SSE 8.1 mph - N/A Rain Light Rain
11:27 AM 55.4 °F 55.4 °F 100% 30.16 in 10.0 mi SSE 8.1 mph - N/A   Overcast
11:55 AM 57.2 °F 57.2 °F 100% 30.16 in 10.0 mi SSE 8.1 mph - 0.01 in   Overcast
12:15 PM 57.2 °F 57.2 °F 100% 30.15 in 6.0 mi SSE 8.1 mph - N/A Rain Light Rain
12:24 PM 57.2 °F 57.2 °F 100% 30.14 in 10.0 mi SE 10.4 mph - N/A   Overcast
12:35 PM 57.2 °F 57.2 °F 100% 30.14 in 10.0 mi SE 10.4 mph - N/A   Light Drizzle
12:55 PM 57.2 °F 56.8 °F 99% 30.12 in 9.0 mi SE 10.4 mph - 0.01 in   Light Drizzle
1:55 PM 57.2 °F 56.8 °F 99% 30.13 in 10.0 mi SSE 11.5 mph - 0.02 in   Overcast
2:55 PM 58.6 °F 58.5 °F 99% 30.09 in 10.0 mi SE 8.1 mph - N/A   Mostly Cloudy
3:24 PM 60.8 °F 59.0 °F 94% 30.08 in 10.0 mi SE 8.1 mph - N/A   Mostly Cloudy
3:55 PM 62.2 °F 59.4 °F 90% 30.08 in 10.0 mi SSE 10.4 mph - N/A   Overcast
4:55 PM 60.8 °F 58.1 °F 91% 30.08 in 10.0 mi SSE 9.2 mph - N/A   Overcast
5:55 PM 59.9 °F 58.1 °F 94% 30.06 in 10.0 mi SE 8.1 mph - N/A   Overcast
6:10 PM 59.0 °F 59.0 °F 100% 30.06 in 10.0 mi SE 8.1 mph - N/A   Overcast
6:36 PM 60.8 °F 59.0 °F 94% 30.04 in 10.0 mi ESE 10.4 mph - N/A   Mostly Cloudy
6:55 PM 59.9 °F 58.6 °F 96% 30.04 in 10.0 mi ESE 9.2 mph - N/A   Mostly Cloudy
7:44 PM 59.0 °F 59.0 °F 100% 30.04 in 10.0 mi SE 8.1 mph - N/A   Overcast
7:55 PM 58.8 °F 58.5 °F 99% 30.04 in 10.0 mi SE 8.1 mph - N/A   Overcast
8:40 PM 57.2 °F 57.2 °F 100% 30.05 in 10.0 mi ESE 12.7 mph - N/A   Overcast
8:55 PM 57.9 °F 57.6 °F 99% 30.06 in 10.0 mi ESE 6.9 mph - N/A   Overcast
9:55 PM 57.4 °F 57.0 °F 99% 30.04 in 10.0 mi ESE 11.5 mph - N/A   Overcast
10:00 PM 57.2 °F 57.2 °F 100% 30.05 in 10.0 mi ESE 9.2 mph - N/A   Overcast
10:55 PM 57.0 °F 57.0 °F 100% 30.06 in 10.0 mi ESE 6.9 mph - N/A   Overcast
11:11 PM 57.2 °F 57.2 °F 100% 30.05 in 10.0 mi ESE 8.1 mph - N/A   Overcast
11:55 PM 56.8 °F 56.8 °F 100% 30.05 in 10.0 mi SE 5.8 mph - N/A   Overcast